XW-2C
1 40906U 15049H 21357.86634132 .00003574 00000-0 18215-3 0 9998
2 40906 97.4899 357.9734 0012800 248.0057 181.3653 15.17348340346288
XW-2D
1 40907U 15049J 21357.82612476 .00003860 00000-0 19426-3 0 9995
2 40907 97.4893 357.8040 0012118 243.5079 239.5466 15.17749243346317
LILACSAT-2
1 40908U 15049K 21357.88962233 .00001787 00000-0 99677-4 0 9994
2 40908 97.5111 355.4242 0013940 265.2181 160.3199 15.14793353345905
XW-2E
1 40909U 15049L 21357.84972315 .00005904 00000-0 27246-3 0 9990
2 40909 97.4666 2.0739 0011460 223.8868 257.9070 15.20552208346702
XW-2F
1 40910U 15049M 21357.84966528 .00005821 00000-0 27255-3 0 9999
2 40910 97.4741 1.1715 0012501 225.0036 256.7363 15.20046778346487
XW-2B
1 40911U 15049N 21357.83943582 .00003784 00000-0 19102-3 0 9992
2 40911 97.4889 358.4666 0011974 245.1812 236.3276 15.17658199346201
DCBB
1 40912U 15049P 21357.85296590 .00006575 00000-0 28430-3 0 9990
2 40912 97.4420 5.5536 0013240 192.1040 290.1789 15.22720416347005
TW-1A
1 40928U 15051D 21357.89968101 .00019602 00000-0 36030-3 0 9998
2 40928 97.0611 18.4540 0007723 329.6549 150.8734 15.49223953350984
IO-86
1 40931U 15052B 21356.50555478 .00000801 00000-0 22456-4 0 9998
2 40931 6.0022 351.2436 0012867 185.7929 174.1983 14.76712268337143
ATHENOXAT-1
1 41168U 15077C 21357.54456053 .00008748 00000-0 39396-3 0 9990
2 41168 14.9876 309.6611 0009923 296.6309 209.2291 15.16969503333527
ChubuSat-2
1 41338U 16012B 21357.57543054 .00001706 00000-0 12452-3 0 9991
2 41338 31.0038 63.1335 0013544 208.5855 151.4038 15.00745516321032
ChubuSat-3
1 41339U 16012C 21357.84681995 .00001248 00000-0 89016-4 0 9991
2 41339 31.0115 58.4550 0013498 219.1677 140.7990 15.00874159321071
Horyu-4
1 41340U 16012D 21357.48091195 .00002937 00000-0 21064-3 0 9994
2 41340 31.0061 41.8972 0013662 250.8286 109.0871 15.02251487321237
e-st@r-II
1 41459U 16025D 21357.63776881 .00012077 00000-0 56556-3 0 9998
2 41459 98.1646 145.6135 0156381 144.2042 216.9798 15.09597582310945
AAUSAT4
1 41460U 16025E 21357.90621286 .00016933 00000-0 74086-3 0 9991
2 41460 98.1607 150.8081 0141596 124.0404 237.4365 15.13447551311340
LO-87
1 41557U 16033B 21357.87234209 .00008186 00000-0 27720-3 0 9992
2 41557 97.3931 90.8912 0010729 285.0639 214.7568 15.30792848310494
NuSat2
1 41558U 16033C 21357.87391641 .00008159 00000-0 25867-3 0 9997
2 41558 97.4080 95.6413 0009727 274.9869 225.3855 15.32927500310728
Lapan A3
1 41603U 16040E 21357.89167824 .00000936 00000-0 46129-4 0 9992
2 41603 97.2317 37.3682 0014863 61.2178 291.3474 15.20208363305357
Pratham
1 41783U 16059A 21357.68805436 .00000308 00000-0 68421-4 0 9998
2 41783 97.9398 41.0544 0033665 11.3249 348.8704 14.63205376279921
TY-1
1 41844U 16066D 21357.88611293 .00004784 00000-0 18503-3 0 9999
2 41844 97.3954 6.2006 0013876 182.2831 296.3780 15.26609485284795
CAS-2T
1 41847U 16066G 21357.77370865 .00000509 00000-0 86416-4 0 9997
2 41847 98.5773 57.4470 0365152 15.2546 345.9309 14.38307943269098
EO-88
1 42017U 17008BX 21357.64758457 .00010307 00000-0 35944-3 0 9993
2 42017 97.2945 61.7965 0006598 143.5370 216.6321 15.29792293270163
CAS-4B
1 42759U 17034B 21357.82884682 .00002145 00000-0 14051-3 0 9992
2 42759 43.0172 219.6717 0009071 272.2992 188.8769 15.10648691249787
CAS-4A
1 42761U 17034D 21357.93900745 .00002248 00000-0 14627-3 0 9999
2 42761 43.0179 217.9848 0009452 273.2300 176.5172 15.10736474249802
NIUSat
1 42766U 17036B 21357.91497822 .00005738 00000-0 24154-3 0 9994
2 42766 97.2265 37.1457 0013470 222.5687 137.4508 15.23667292250055
Aalto 1
1 42775U 17036L 21357.83771985 .00004348 00000-0 18509-3 0 9993
2 42775 97.2229 37.2017 0012046 221.5823 138.4499 15.23436237250027
URSA MAIOR
1 42776U 17036M 21357.86871964 .00005355 00000-0 22494-3 0 9992
2 42776 97.2242 37.8158 0011813 220.2702 139.7661 15.23787963250051
Max Valier Sat
1 42778U 17036P 21357.66491959 .00005865 00000-0 24103-3 0 9999
2 42778 97.2312 39.9018 0010417 221.7928 138.2515 15.24504307250102
Pegasus
1 42784U 17036V 21357.68514646 .00007500 00000-0 29806-3 0 9990
2 42784 97.2259 40.5238 0009828 224.0805 135.9651 15.25541198250199
NUDATSat
1 42787U 17036Y 21357.94091455 .00010560 00000-0 38681-3 0 9991
2 42787 97.2298 43.8849 0009065 213.2199 146.8495 15.28154516250259
SUCHAI 1
1 42788U 17036Z 21357.76961569 .00008215 00000-0 31611-3 0 9994
2 42788 97.2266 41.8692 0009428 219.3766 140.6788 15.26593103250354
SKCUBE
1 42789U 17036AA 21357.70601122 .00007775 00000-0 30272-3 0 9997
2 42789 97.2262 41.4187 0009347 220.1091 139.9459 15.26219285250247
VZLUSAT 1
1 42790U 17036AB 21357.67763112 .00011526 00000-0 42260-3 0 9992
2 42790 97.2296 43.6136 0008727 213.1446 146.9248 15.28103572250361
VENTA 1
1 42791U 17036AC 21357.89581148 .00006572 00000-0 25766-3 0 9991
2 42791 97.2260 41.5819 0008988 220.2278 139.8297 15.26047777250265
Robusta 1B
1 42792U 17036AD 21357.70737068 .00008182 00000-0 31555-3 0 9998
2 42792 97.2263 41.8805 0008934 219.9845 140.0737 15.26520782250280
D-SAT
1 42794U 17036AF 21357.92564760 .00002264 00000-0 19882-3 0 9995
2 42794 97.4544 7.6952 0123699 313.1066 45.9855 14.91857404245303
TechnoSat
1 42829U 17042E 21357.93035564 .00000735 00000-0 78679-4 0 9998
2 42829 97.4405 217.1062 0012842 230.6900 129.3182 14.91442551241922
QIKCOM-1
1 42983U 98067NF 21357.85334295 .00032525 00000-0 24076-3 0 9992
2 42983 51.6350 13.6536 0003483 2.4386 357.6628 15.72612258237146
AO-91
1 43017U 17073E 21357.66862622 .00003647 00000-0 28095-3 0 9996
2 43017 97.6920 254.0150 0254287 42.9529 319.1233 14.80051323221101
PICSAT
1 43132U 18004X 21357.77587164 .00009617 00000-0 36291-3 0 9996
2 43132 97.3923 70.5768 0007081 257.8483 102.1963 15.27217835219560
AO-92
1 43137U 18004AC 21357.87494037 .00006849 00000-0 26638-3 0 9996
2 43137 97.3894 69.8914 0006836 261.1422 98.9042 15.26326815219540
TianYi 2
1 43155U 18008A 21357.84550684 .00004608 00000-0 26230-3 0 9997
2 43155 97.3801 56.9477 0017891 38.2214 92.7150 15.13183661216707
Zhou Enlai
1 43156U 18008B 21357.88463157 .00004347 00000-0 25031-3 0 9998
2 43156 97.3844 56.8314 0015212 39.1873 47.5309 15.12833727216641
TianYi 6
1 43158U 18008D 21357.77873655 .00004012 00000-0 23576-3 0 9997
2 43158 97.3780 55.0171 0014616 37.9177 86.8436 15.12151787216549
S-Net D
1 43186U 18014G 21357.69949120 .00001770 00000-0 15750-3 0 9990
2 43186 97.6694 261.7633 0011280 158.3566 201.8135 14.97290124212610
S-Net B
1 43187U 18014H 21357.69948661 .00001784 00000-0 15875-3 0 9993
2 43187 97.6690 261.7226 0011276 158.2769 201.8933 14.97289589212613
S-Net A
1 43188U 18014J 21357.69967653 .00001773 00000-0 15778-3 0 9996
2 43188 97.6694 261.7766 0011260 158.3283 201.8417 14.97288582212611
S-Net C
1 43189U 18014K 21357.70020320 .00001730 00000-0 15403-3 0 9998
2 43189 97.6689 261.7143 0011254 158.2337 201.9365 14.97287969211167
FMN 1
1 43192U 18015A 21357.93753296 .00015172 00000-0 51607-3 0 9994
2 43192 97.5122 134.8362 0012237 295.4958 183.9302 15.30465444216541
